Location: Borbetomagus
(49.6328°N, 8.3592°E)
Time: 00:10:32
(UTC+00:00)

Cosmos 1605 Rocket - Pass Details

Date: 19 May 2025
Orbit: 944 x 1005 km, 82.9° (Epoch: 15 June)

Event Time Altitude Azimuth Distance (km) Brightness Sun altitude
Rises 23:23:57 0° 346° (NNW) 3,729 8.5 -20.4°
Reaches altitude 10° 23:26:34 10° 342° (NNW) 2,768 7.4 -20.4°
Maximum altitude 23:32:38 49° 270° (W) 1,248 4.5 -20.3°
Enters shadow 23:35:18 31° 214° (SW) 1,649 4.7 -20.3°
